GW4854 Weather Reports


Display with metric or nautical units.
time (UTC)temp
F
wind
direction
speed
MPH
gust
MPH
rain 1hr
in
rain 24hr
in
rain mn
in
humidity
%
barometer
mb
20260502130358 44 56 1.0 3.0 0.00 0.01 0.01 95 1018.2
20260502123341 40 347 0.0 1.0 0.00 0.01 0.01 99 1017.9
20260502122838 40 349 1.0 1.0 0.00 0.01 0.01 99 1018.1
20260502122333 39 31 0.0 1.0 0.00 0.01 0.01 99 1018.1
20260502121833 39 348 0.0 0.0 0.00 0.01 0.01 99 1018.1
20260502121329 38 57 0.0 1.0 0.00 0.01 0.01 99 1018.2
20260502120827 38 144 0.0 1.0 0.00 0.01 0.01 99 1018.2
20260502120323 37 219 0.0 1.0 0.00 0.01 0.01 99 1018.3
20260502115820 36 54 0.0 0.0 0.00 0.01 0.01 99 1018.0
20260502115317 36 54 0.0 0.0 0.00 0.01 0.01 99 1018.0
20260502114814 34 55 0.0 0.0 0.00 0.01 0.01 99 1018.0
20260502114311 34 158 0.0 0.0 0.00 0.01 0.01 99 1018.0
20260502113808 33 219 0.0 0.0 0.05 0.01 0.01 99 1018.2
20260502113305 33 219 0.0 0.0 0.05 0.01 0.01 99 1018.0
20260502112803 33 219 0.0 0.0 0.00 0.00 0.00 99 1017.9
20260502112300 33 219 0.0 0.0 0.00 0.00 0.00 99 1017.7
20260502111757 32 219 0.0 0.0 0.00 0.00 0.00 99 1017.7
20260502111255 32 219 0.0 0.0 0.00 0.00 0.00 99 1017.9
20260502110752 32 219 0.0 0.0 0.00 0.00 0.00 99 1017.8
20260502110250 31 219 0.0 0.0 0.00 0.00 0.00 99 1017.8
20260502105748 31 219 0.0 0.0 0.00 0.00 0.00 99 1017.9
20260502105244 30 219 0.0 0.0 0.00 0.00 0.00 99 1017.9
20260502104742 30 219 0.0 0.0 0.00 0.00 0.00 99 1017.7
20260502104239 30 219 0.0 0.0 0.00 0.00 0.00 99 1017.7
20260502103737 30 219 0.0 0.0 0.00 0.00 0.00 99 1017.9
20260502103234 30 219 0.0 0.0 0.00 0.00 0.00 99 1018.0
20260502102731 30 219 0.0 0.0 0.00 0.00 0.00 99 1017.9
20260502102227 30 219 0.0 0.0 0.00 0.00 0.00 99 1018.0
20260502101726 30 219 0.0 0.0 0.00 0.00 0.00 99 1018.2
20260502101224 30 219 0.0 0.0 0.00 0.00 0.00 99 1018.1
20260502100721 31 219 0.0 0.0 0.00 0.00 0.00 99 1018.0
20260502100220 31 219 0.0 0.0 0.00 0.00 0.00 99 1018.0
20260502091153 31 218 0.0 0.0 0.00 0.00 0.00 99 1017.9
20260502090651 31 218 0.0 0.0 0.00 0.00 0.00 99 1018.2
20260502090148 31 218 0.0 0.0 0.00 0.00 0.00 99 1018.2
20260502080110 0 0.0 0.0 0.00 0.00 0.00 1017.9
20260502071043 33 191 0.0 0.0 0.00 0.00 0.00 99 1017.8
20260502070541 33 191 0.0 0.0 0.00 0.00 0.00 99 1017.8
20260502070039 33 191 0.0 0.0 0.00 0.00 0.00 99 1017.8
20260502065537 33 191 0.0 0.0 0.00 0.00 0.00 99 1017.8
20260502065034 33 191 0.0 0.0 0.00 0.00 0.00 99 1017.7
20260502064533 33 191 1.0 1.0 0.00 0.00 0.00 99 1017.8
20260502064029 33 342 0.0 0.0 0.00 0.00 0.00 99 1017.9
20260502063527 34 342 0.0 0.0 0.00 0.00 0.00 99 1017.8
20260502063025 34 343 0.0 0.0 0.00 0.00 0.00 99 1018.0
20260502062521 34 282 0.0 0.0 0.00 0.00 0.00 99 1018.1
20260502062020 34 282 0.0 0.0 0.00 0.00 0.00 99 1018.1
20260502061518 34 262 1.0 1.0 0.00 0.00 0.00 99 1018.1
20260502061015 33 223 0.0 0.0 0.00 0.00 0.00 99 1018.1
20260502060509 34 228 0.0 1.0 0.00 0.00 0.00 99 1018.0
20260502060007 34 228 0.0 0.0 0.00 0.00 0.00 99 1018.4
20260502055504 34 240 0.0 1.0 0.00 0.00 0.00 99 1018.5
20260502055003 34 261 0.0 0.0 0.00 0.00 0.00 99 1018.3
20260502054501 34 261 0.0 0.0 0.00 0.00 0.00 99 1018.5
20260502053958 34 261 0.0 0.0 0.00 0.00 0.00 99 1018.4
20260502053455 34 261 0.0 0.0 0.00 0.00 0.00 99 1018.3
20260502052953 34 261 0.0 0.0 0.00 0.00 0.00 99 1018.4
20260502052450 34 261 0.0 0.0 0.00 0.00 0.00 99 1018.5
20260502051949 35 258 0.0 0.0 0.00 0.00 0.00 99 1018.4
20260502051446 35 258 0.0 0.0 0.00 0.00 0.00 99 1018.3
20260502050943 35 266 0.0 0.0 0.00 0.00 0.00 99 1018.3
20260502050440 0 0.0 0.0 0.00 0.00 0.00 1018.4
20260502045937 35 222 0.0 0.0 0.00 0.00 0.00 98 1018.2
20260502045434 35 222 0.0 0.0 0.00 0.00 0.00 98 1018.3
20260502044931 36 222 0.0 0.0 0.00 0.00 0.00 98 1018.5
20260502044426 36 222 0.0 0.0 0.00 0.00 0.00 98 1018.5
20260502043923 36 222 0.0 0.0 0.00 0.00 0.00 98 1018.5
20260502043421 35 222 0.0 0.0 0.00 0.00 0.00 98 1018.6
20260502042921 36 222 0.0 0.0 0.00 0.00 0.00 98 1018.4
20260502042418 36 22 0.0 0.0 0.00 0.00 0.00 98 1018.7
20260502041915 0 0.0 0.0 0.00 0.00 0.00 1018.6
20260502041413 36 14 0.0 0.0 0.00 0.00 0.00 97 1018.5
20260502040910 36 14 0.0 0.0 0.00 0.00 0.00 97 1018.6
20260502040406 36 268 0.0 0.0 0.00 0.00 0.00 97 1018.5
20260502035902 0 0.0 0.0 0.00 0.01 0.01 1018.3
20260502035359 0 0.0 0.0 0.00 0.01 0.01 1018.1
20260502034856 37 270 0.0 0.0 0.00 0.01 0.01 97 1018.3
20260502034355 37 270 0.0 0.0 0.00 0.01 0.01 97 1018.1
20260502033853 38 270 0.0 0.0 0.00 0.01 0.01 97 1018.2
20260502033350 0 0.0 0.0 0.00 0.01 0.01 1018.2
20260502032847 0 0.0 0.0 0.00 0.01 0.01 1018.2
20260502032343 0 0.0 0.0 0.00 0.01 0.01 1018.5
20260502031841 0 0.0 0.0 0.00 0.01 0.01 1018.2
20260502031339 38 212 0.0 0.0 0.00 0.01 0.01 94 1018.1
20260502030837 38 212 0.0 0.0 0.00 0.01 0.01 94 1018.3
20260502030335 39 212 0.0 0.0 0.00 0.01 0.01 94 1018.4
20260502025832 39 197 0.0 0.0 0.00 0.01 0.01 93 1018.3
20260502025330 39 203 0.0 0.0 0.00 0.01 0.01 92 1018.5
20260502024827 39 203 0.0 0.0 0.00 0.01 0.01 92 1018.4
20260502024325 39 226 0.0 0.0 0.00 0.01 0.01 91 1018.3
20260502023823 40 226 0.0 0.0 0.00 0.01 0.01 91 1018.2
20260502023320 40 226 0.0 0.0 0.00 0.01 0.01 90 1018.1
20260502022818 0 0.0 0.0 0.00 0.01 0.01 1018.1
20260502022314 0 0.0 0.0 0.00 0.01 0.01 1017.9
20260502021811 42 218 0.0 0.0 0.00 0.01 0.01 87 1017.7
20260502021308 42 218 0.0 0.0 0.00 0.01 0.01 87 1017.5
20260502020805 43 196 0.0 0.0 0.00 0.01 0.01 84 1017.7
20260502020303 43 196 0.0 0.0 0.00 0.01 0.01 84 1017.6
20260502015800 0 0.0 0.0 0.00 0.01 0.01 1017.5
20260502015256 0 0.0 0.0 0.00 0.01 0.01 1017.5
20260502014754 0 0.0 0.0 0.00 0.01 0.01 1017.5
20260502014250 0 0.0 0.0 0.00 0.01 0.01 1017.4
20260502013747 47 134 0.0 1.0 0.00 0.01 0.01 72 1017.3
20260502013242 47 134 0.0 1.0 0.00 0.01 0.01 72 1017.3
20260502012739 47 138 2.0 2.0 0.00 0.01 0.01 71 1017.2
20260502012237 47 59 0.0 4.0 0.00 0.01 0.01 71 1017.2
20260502011734 48 142 1.0 3.0 0.00 0.01 0.01 70 1017.1
20260502011230 48 164 2.0 6.0 0.00 0.01 0.01 70 1016.9
20260502010728 48 155 2.0 3.0 0.00 0.01 0.01 71 1016.8
20260502010224 49 198 6.0 8.0 0.00 0.01 0.01 70 1016.6
20260502005721 49 144 2.0 4.0 0.00 0.01 0.01 71 1016.6
20260502005219 50 165 2.0 7.0 0.00 0.01 0.01 70 1016.4
20260502004715 50 154 3.0 7.0 0.00 0.01 0.01 70 1016.3
20260502004212 50 129 2.0 4.0 0.00 0.01 0.01 70 1016.1
20260502003710 50 147 1.0 6.0 0.00 0.01 0.01 69 1016.1
20260502003207 51 140 2.0 4.0 0.00 0.01 0.01 68 1016.1
20260502002702 51 143 2.0 2.0 0.00 0.01 0.01 67 1016.0
20260502002201 51 84 0.0 3.0 0.00 0.01 0.01 68 1016.0
20260502001657 51 108 4.0 7.0 0.00 0.01 0.01 67 1015.8
20260502001155 52 152 2.0 4.0 0.00 0.01 0.01 69 1015.9
20260502000653 52 171 4.0 7.0 0.00 0.01 0.01 68 1015.5
20260502000150 52 186 6.0 7.0 0.00 0.01 0.01 71 1015.3
20260501235646 52 175 8.0 11.0 0.00 0.01 0.01 70 1015.1
20260501235142 52 27 4.0 6.0 0.00 0.01 0.01 72 1015.1
20260501234637 53 84 1.0 4.0 0.00 0.01 0.01 73 1014.9
20260501234135 53 167 0.0 4.0 0.00 0.01 0.01 73 1014.6
20260501233633 53 126 3.0 6.0 0.00 0.01 0.01 74 1014.8
20260501233130 53 113 2.0 4.0 0.00 0.01 0.01 74 1014.6
20260501232626 53 134 3.0 4.0 0.00 0.01 0.01 74 1014.5
20260501232124 53 68 1.0 2.0 0.00 0.01 0.01 76 1014.5
20260501231621 53 111 0.0 1.0 0.00 0.01 0.01 75 1014.4
20260501231119 53 105 0.0 0.0 0.00 0.01 0.01 77 1014.6
20260501230617 53 57 1.0 3.0 0.00 0.01 0.01 76 1014.4
20260501230115 53 127 1.0 2.0 0.00 0.01 0.01 75 1014.4
20260501225613 53 35 2.0 4.0 0.00 0.01 0.01 75 1014.5
20260501225108 53 48 2.0 2.0 0.00 0.01 0.01 75 1014.4
20260501224606 53 84 1.0 3.0 0.00 0.01 0.01 73 1014.4
20260501224103 53 114 0.0 1.0 0.00 0.01 0.01 75 1014.4
20260501223600 53 89 1.0 2.0 0.00 0.01 0.01 74 1014.5
20260501223055 53 87 1.0 2.0 0.00 0.01 0.01 75 1014.4
20260501222552 52 89 0.0 1.0 0.00 0.01 0.01 74 1014.4
20260501222049 52 165 1.0 1.0 0.00 0.01 0.01 75 1014.6
20260501221545 52 135 1.0 3.0 0.00 0.01 0.01 74 1014.5
20260501221043 52 158 1.0 1.0 0.00 0.01 0.01 76 1014.3
20260501220541 52 172 1.0 2.0 0.00 0.01 0.01 76 1014.2
20260501220037 52 145 3.0 4.0 0.00 0.01 0.01 75 1014.5
20260501215533 52 99 2.0 2.0 0.00 0.01 0.01 76 1014.8
20260501215029 52 145 2.0 4.0 0.00 0.01 0.01 77 1014.6
20260501214525 53 194 3.0 3.0 0.00 0.01 0.01 75 1014.3
20260501214020 53 155 4.0 6.0 0.00 0.01 0.01 74 1014.5
20260501213518 53 115 1.0 2.0 0.00 0.01 0.01 75 1014.3
20260501213014 53 150 2.0 3.0 0.00 0.01 0.01 74 1014.3
20260501212510 53 154 2.0 2.0 0.00 0.01 0.01 75 1014.1
20260501212008 53 7 1.0 2.0 0.00 0.01 0.01 72 1014.2
20260501211504 53 102 2.0 3.0 0.00 0.01 0.01 72 1014.1
20260501211002 54 37 0.0 2.0 0.00 0.01 0.01 71 1013.9
20260501210458 54 77 4.0 7.0 0.00 0.01 0.01 71 1014.0
20260501205955 55 115 1.0 2.0 0.00 0.01 0.01 71 1013.9
20260501205451 55 66 2.0 6.0 0.00 0.01 0.01 71 1013.9
20260501204949 55 151 3.0 3.0 0.00 0.01 0.01 74 1014.1
20260501204445 55 125 5.0 10.0 0.00 0.01 0.01 74 1014.0
20260501203941 55 76 3.0 6.0 0.00 0.01 0.01 73 1014.1
20260501203438 55 215 6.0 8.0 0.00 0.01 0.01 74 1014.1
20260501202936 56 132 5.0 11.0 0.00 0.01 0.01 76 1013.9
20260501202432 55 164 5.0 8.0 0.00 0.01 0.01 75 1013.7
20260501201929 56 148 6.0 11.0 0.00 0.01 0.01 76 1013.9
20260501201426 57 106 4.0 6.0 0.00 0.01 0.01 74 1013.7
20260501200923 57 196 4.0 6.0 0.00 0.01 0.01 76 1013.6
20260501200420 56 152 2.0 4.0 0.00 0.01 0.01 78 1013.4
20260501195917 55 122 1.0 3.0 0.00 0.01 0.01 81 1013.5
20260501195414 55 69 1.0 4.0 0.00 0.01 0.01 81 1013.5
20260501194909 55 136 4.0 6.0 0.00 0.01 0.01 79 1013.5
20260501194405 55 91 1.0 6.0 0.00 0.01 0.01 77 1013.6
20260501193901 56 126 4.0 6.0 0.00 0.01 0.01 75 1013.3
20260501193400 56 136 1.0 4.0 0.00 0.01 0.01 77 1013.6
20260501192857 56 124 4.0 4.0 0.00 0.01 0.01 73 1013.4
20260501192354 57 158 8.0 13.0 0.00 0.01 0.01 68 1013.8
20260501191851 58 25 4.0 6.0 0.00 0.01 0.01 64 1013.3
20260501191348 58 75 3.0 7.0 0.00 0.01 0.01 62 1013.2
20260501190845 59 77 2.0 13.0 0.00 0.01 0.01 60 1013.0
20260501190341 59 93 2.0 4.0 0.00 0.01 0.01 56 1013.0
20260501185836 60 77 3.0 7.0 0.00 0.01 0.01 56 1012.9
20260501185333 60 46 2.0 4.0 0.00 0.01 0.01 53 1012.8
20260501184829 61 53 4.0 13.0 0.00 0.01 0.01 52 1012.7
20260501184325 62 47 6.0 10.0 0.00 0.01 0.01 51 1012.5
20260501183820 62 53 8.0 11.0 0.00 0.01 0.01 49 1012.5
20260501183318 63 40 6.0 9.0 0.00 0.01 0.01 52 1012.8
20260501182814 64 36 5.0 17.0 0.00 0.01 0.01 49 1012.7
20260501182311 65 43 6.0 11.0 0.00 0.01 0.01 50 1012.6
20260501181808 63 35 6.0 11.0 0.00 0.01 0.01 48 1012.6
20260501181305 64 58 5.0 8.0 0.00 0.01 0.01 49 1012.8
20260501180802 65 37 4.0 8.0 0.00 0.01 0.01 46 1012.7
20260501180258 63 61 8.0 10.0 0.00 0.01 0.01 45 1012.8
20260501175755 63 21 4.0 8.0 0.00 0.01 0.01 51 1012.9
20260501175253 63 46 7.0 9.0 0.00 0.01 0.01 51 1012.9
20260501174749 63 37 1.0 4.0 0.00 0.01 0.01 51 1012.9
20260501174246 64 84 4.0 8.0 0.00 0.01 0.01 45 1013.1
20260501173744 64 51 5.0 10.0 0.00 0.01 0.01 51 1013.2
20260501173241 63 133 9.0 11.0 0.00 0.01 0.01 43 1013.0
20260501172737 63 143 4.0 7.0 0.00 0.01 0.01 49 1013.0
20260501172232 63 103 3.0 9.0 0.00 0.01 0.01 49 1013.0
20260501171728 62 18 7.0 9.0 0.00 0.01 0.01 48 1013.2
20260501171226 62 39 4.0 6.0 0.00 0.01 0.01 52 1013.2
20260501170722 62 233 3.0 3.0 0.00 0.01 0.01 49 1013.1
20260501170219 62 128 2.0 7.0 0.00 0.01 0.01 52 1013.4
20260501165716 61 47 2.0 2.0 0.00 0.01 0.01 52 1013.4
20260501165214 61 71 1.0 3.0 0.00 0.01 0.01 48 1013.4
20260501164712 61 71 4.0 7.0 0.00 0.01 0.01 49 1013.6
20260501164209 60 27 7.0 9.0 0.00 0.01 0.01 57 1013.7
20260501163704 61 84 4.0 8.0 0.00 0.01 0.01 52 1013.7
20260501163202 59 24 3.0 9.0 0.00 0.01 0.01 47 1014.0
20260501162658 59 55 3.0 8.0 0.00 0.01 0.01 47 1013.9
20260501162154 58 57 4.0 9.0 0.00 0.01 0.01 54 1014.0
20260501161652 58 52 3.0 4.0 0.00 0.01 0.01 56 1013.9
20260501161149 58 54 6.0 8.0 0.00 0.01 0.01 53 1013.7
20260501160645 58 29 6.0 9.0 0.00 0.01 0.01 52 1013.7
20260501160143 58 26 4.0 8.0 0.00 0.01 0.01 50 1013.9
20260501155639 58 33 4.0 6.0 0.00 0.01 0.01 57 1013.8
20260501155136 57 84 5.0 8.0 0.00 0.01 0.01 53 1014.0
20260501154633 58 62 3.0 8.0 0.00 0.01 0.01 54 1014.0
20260501154131 57 45 3.0 4.0 0.00 0.01 0.01 53 1014.1
20260501153628 58 9 9.0 10.0 0.00 0.01 0.01 52 1013.9
20260501153125 58 142 2.0 4.0 0.00 0.01 0.01 53 1014.2
20260501152621 57 112 3.0 10.0 0.00 0.01 0.01 57 1014.4
20260501152118 57 23 4.0 4.0 0.00 0.01 0.01 56 1014.2
20260501151615 57 37 5.0 7.0 0.00 0.01 0.01 54 1014.4
20260501151112 57 333 6.0 10.0 0.00 0.01 0.01 53 1014.3
20260501150609 57 29 6.0 8.0 0.00 0.01 0.01 54 1014.2
20260501150105 57 48 5.0 8.0 0.00 0.01 0.01 55 1014.4
20260501145601 56 70 3.0 7.0 0.00 0.01 0.01 58 1014.6
20260501145059 55 38 6.0 8.0 0.00 0.01 0.01 58 1014.5
20260501144555 56 26 6.0 8.0 0.00 0.01 0.01 58 1014.5
20260501144050 56 316 5.0 8.0 0.00 0.01 0.01 61 1014.5
20260501143546 56 15 6.0 7.0 0.00 0.01 0.01 61 1014.5
20260501143044 56 355 2.0 6.0 0.00 0.01 0.01 60 1014.8